Location: Betpouey
(42.8833°N, 0.0333°E)
Time: 18:01:21
(UTC+00:00)

Daily predictions for brighter satellites

Satellite Brightness Start Highest point End
(mag) Time Altitude Azimuth Time Altitude Azimuth Time Altitude Azimuth
BREEZE-M DEB (TANK) 1.4 20:13:00 10° SW 20:15:15 47° SE 20:18:07 10° ENE
DNEPR-1 R/B 4.0 20:12:37 10° NNW 20:16:45 51° NE 20:21:09 10° SE
Meteor 1-16 Rocket 4.2 20:11:54 10° N 20:17:17 67° ENE 20:22:32 10° SSE
Cosmos 2278 Rocket 3.9 20:14:08 10° N 20:18:16 20° NE 20:22:23 10° E
Ariane Rocket 3.1 20:14:45 10° SSE 20:19:50 86° WSW 20:24:59 10° NNW
Cosmos 2322 3.8 20:14:22 10° S 20:19:54 60° ESE 20:25:28 10° NNE
Terra 4.0 20:19:05 10° ENE 20:20:40 12° ENE 20:22:15 10° NE
SPOT 1/Viking Rocket 4.3 20:17:08 10° SE 20:21:48 36° ENE 20:26:28 10° N
ATLAS CENTAUR R/B 1.6 20:17:51 10° NNW 20:22:15 82° NE 20:26:54 10° SE
Cosmos 1900 4.4 20:18:44 10° NNW 20:23:38 82° WSW 20:28:29 10° SSE
Cosmos 1975 Rocket 3.1 20:19:55 10° S 20:24:17 86° W 20:28:44 10° N
In-Cosmos 22 4.5 20:19:46 10° SSW 20:25:00 68° WNW 20:30:20 10° N
COSMOS 2428 3.0 20:20:54 10° S 20:26:20 46° ESE 20:31:48 10° NE
Cosmos 968 Rocket 4.4 20:24:39 10° N 20:29:18 33° ENE 20:33:55 10° SE
Cosmos 1461 4.5 20:28:28 10° NW 20:32:03 29° WSW 20:35:30 10° S
Cosmos 1953 2.4 20:28:07 10° N 20:32:12 90° NE 20:36:15 10° S
Cosmos 1727 Rocket 4.5 20:27:25 10° SSW 20:33:40 67° W 20:39:54 10° N
IGS 5A 3.4 20:30:42 10° SSE 20:34:51 79° ENE 20:39:02 10° N
ATLAS 3B R/B 2.7 20:30:09 10° SW 20:36:41 87° WNW 20:43:28 10° NE
Cosmos 1908 3.2 20:34:03 10° N 20:37:55 85° W 20:41:45 10° S
Cosmos 1459 Rocket 4.0 20:39:45 10° N 20:45:51 88° E 20:51:57 10° S
SPOT 5 4.1 20:43:25 12° ESE 20:47:17 28° ENE 20:51:19 10° N
Landsat 7 3.8 20:42:43 10° SSE 20:47:28 89° WSW 20:52:16 10° NNW
OBJECT-B 3.8 20:49:55 10° WSW 20:51:06 12° W 20:52:17 10° WNW
SPOT 3 Rocket 3.6 20:46:46 10° SSE 20:51:56 84° WSW 20:57:11 10° NNW
ATLAS 2A CENTAUR R/B 4.0 20:43:34 10° SW 20:57:47 25° S 21:02:10 15° SSE
Cosmos 2219 Rocket 2.4 20:53:30 10° SSW 20:59:11 80° WNW 21:04:54 10° NNE
Resurs 01 Rocket 2.3 20:56:34 10° S 21:00:51 52° W 21:05:11 10° NNW
Cosmos 1802 Rocket 4.1 20:55:17 10° N 21:01:38 87° W 21:08:02 10° S
Cosmos 1867 3.7 20:56:33 10° NNW 21:02:02 69° NE 21:06:16 17° SE
Cosmos 1544 Rocket 4.0 21:01:46 10° NNW 21:06:10 64° W 21:10:31 10° S
ERS-1 Rocket 3.6 21:03:38 17° SE 21:07:15 44° ENE 21:12:01 10° N
Cosmos 405 2.9 21:05:36 10° NNW 21:09:03 81° W 21:11:33 18° S
X-37B 0.5 21:07:55 10° WSW 21:11:04 64° SSE 21:14:13 10° ENE
Cosmos 1346 Rocket 3.3 21:14:20 21° SSE 21:16:35 42° E 21:20:24 10° NNE
Cosmos 2333 Rocket 3.2 21:11:55 10° SW 21:17:30 50° WNW 21:23:04 10° NNE
Cosmos 1025 Rocket 4.4 21:16:41 10° SW 21:20:45 38° WNW 21:24:51 10° N
Cosmos 1455 4.0 21:18:41 10° NNE 21:21:23 18° ENE 21:22:38 16° E
Spot 2 Rocket 3.5 21:19:22 18° SSE 21:23:11 90° E 21:28:19 10° NNW
JB-3 4.5 21:20:47 10° N 21:24:50 80° WNW 21:28:47 11° SSW
Cosmos 2228 3.6 21:20:37 10° N 21:24:51 44° ENE 21:27:02 25° SE
H-2A R/B 4.4 21:22:01 10° NE 21:25:35 28° E 21:26:46 24° SE
CZ-2C R/B 4.4 21:21:01 10° N 21:25:43 57° WNW 21:30:21 10° SSW
Cosmos 2237 Rocket 2.3 21:21:26 12° S 21:26:30 52° ESE 21:31:56 10° NE
Cosmos 1340 4.1 21:23:59 10° SW 21:27:29 36° WNW 21:31:00 10° N
SL-16 R/B 3.6 21:26:40 17° ESE 21:27:46 18° E 21:31:30 10° ENE
SL-4 R/B 2.9 21:25:40 10° WSW 21:29:50 50° NNW 21:33:43 10° NE
Cosmos 2123 Rocket 4.4 21:26:49 10° SSW 21:33:03 64° W 21:39:22 10° N
Cosmos 2233 Rocket 4.0 21:27:53 10° N 21:34:05 79° E 21:38:24 21° SSE
Cosmos 1607 4.2 21:28:10 10° NNW 21:34:33 65° NE 21:38:39 23° SE
Cosmos 1300 3.2 21:31:05 10° NNW 21:34:48 54° W 21:37:14 20° SSW
ARIANE 5 R/B 2.7 21:33:34 22° S 21:36:25 75° WSW 21:40:57 10° NNW
DELTA 2 R/B (1) 4.3 21:35:40 10° SSW 21:40:19 28° SSE 21:41:38 25° SE
Meteor 2-5 Rocket 4.2 21:37:49 10° SSW 21:43:18 61° WNW 21:48:54 10° N
Cosmos 1447 Rocket 4.4 21:39:00 18° S 21:43:40 75° E 21:49:49 10° N
Meteor 2-10 Rocket 3.4 21:39:56 10° N 21:44:58 84° E 21:47:42 27° SSE
CARTOSAT-1 4.2 21:46:43 21° SSW 21:49:23 48° W 21:53:35 10° NNW
ATLAS CENTAUR R/B 3.0 21:51:59 28° S 21:54:01 48° ESE 22:02:53 10° NE
Cosmos 1503 Rocket 4.0 21:49:02 10° NNW 21:54:26 79° ENE 21:57:02 31° SSE
Terra 1.8 21:55:24 31° SSE 21:57:40 89° WSW 22:02:28 10° NNW
Meteor 1-24 Rocket 4.3 21:53:30 10° SSW 21:58:46 55° WNW 22:04:14 10° N
ATLAS CENTAUR R/B 4.1 21:58:56 10° W 22:00:36 12° WSW 22:02:17 10° SW
CZ-4B DEB 4.1 22:00:18 63° SSE 22:00:44 85° ENE 22:03:56 10° N
Cosmos 2278 Rocket 2.3 21:57:17 10° NNW 22:02:57 72° WSW 22:05:45 31° S
Cosmos 1943 Rocket 3.6 22:04:56 10° N 22:09:37 28° NE 22:12:41 17° E
Cosmos 192 4.3 22:11:59 24° SSW 22:15:00 82° WNW 22:19:57 10° NNE
Cosmos 389 Rocket 3.6 22:15:03 10° NNW 22:18:13 35° W 22:19:05 30° SW
Cosmos 1184 Rocket 2.6 22:20:41 76° WSW 22:20:51 80° WNW 22:24:05 10° N
SPOT 5 4.1 22:22:38 21° SSW 22:25:14 34° W 22:29:37 10° NNW
Cosmos 1464 Rocket 4.0 22:23:30 10° N 22:29:55 78° E 22:32:40 37° SSE
Cosmos 1726 Rocket 4.0 22:26:48 10° NNW 22:31:09 54° W 22:32:32 37° SSW
USA 229 DEB 4.0 22:30:08 35° SE 22:31:34 40° ESE 22:37:44 10° NE
Cosmos 1441 Rocket 3.0 22:31:15 70° S 22:31:38 83° E 22:35:26 10° NNE
USA 229 4.0 22:30:17 35° SE 22:31:41 40° ESE 22:37:49 10° NE
Cosmos 1777 Rocket 4.0 22:28:58 10° NNW 22:34:17 74° ENE 22:35:58 44° SE
Iridium 2 4.4 22:36:16 39° WSW 22:37:08 47° W 22:40:46 10° N
SJ 16-02 2.2 22:33:19 10° N 22:37:25 37° ENE 22:38:21 33° E
NOSS 3-1 (C) 3.1 22:35:28 39° S 22:37:26 67° ESE 22:43:27 10° NE
Cosmos 2058 Rocket 3.2 22:38:07 10° NNW 22:42:32 68° W 22:43:26 52° SSW
Okean 1-7 Rocket 3.5 22:42:02 53° SSW 22:43:02 84° W 22:47:29 10° N
X-37B 1.3 22:44:39 10° W 22:47:30 53° NNW 22:47:30 53° NNW
NOSS 2-3 (E) 3.3 22:49:23 66° SE 22:49:29 66° ESE 22:54:03 10° NE
NOSS 3-1 (A) 3.4 22:50:44 45° SE 22:51:24 47° ESE 22:57:09 10° NE
Meteor 1-21 Rocket 4.4 22:49:05 34° SSW 22:51:38 70° WNW 22:57:25 10° N
USA 215 3.4 22:50:34 10° ENE 22:56:54 50° SE 22:58:45 40° S
Cosmos 1455 3.6 22:53:42 10° NNW 22:57:00 29° W 22:57:31 28° WSW
Cosmos 1703 4.1 23:02:32 39° WSW 23:03:14 44° WNW 23:07:03 10° N
Cosmos 2034 Rocket 4.0 23:02:34 10° N 23:08:44 76° W 23:10:49 44° S
Meteor 1-4 Rocket 2.9 23:05:35 10° NNW 23:08:33 58° NW 23:08:33 58° NW
Spot 4 3.7 23:09:05 62° S 23:09:54 84° WSW 23:14:42 10° NNW
SL-4 R/B 4.4 23:06:47 10° WNW 23:10:03 23° N 23:13:07 10° NE
Cosmos 2237 Rocket 4.1 23:06:12 10° WSW 23:10:51 26° NW 23:15:31 10° N
SL-16 R/B 2.4 23:08:29 30° SW 23:11:17 66° WNW 23:16:56 10° NNE
GP-B 3.8 23:10:37 10° NNE 23:14:51 41° E 23:15:02 41° E
Cosmos 1626 Rocket 3.9 23:18:02 49° WSW 23:18:46 57° W 23:23:08 10° N
Cosmos 2369 Rocket 2.8 23:14:03 10° NNW 23:19:38 50° ENE 23:21:44 34° ESE
USA 308 4.5 23:22:32 24° E 23:22:32 24° E 23:24:32 10° ENE
ALOS 2 2.5 23:21:22 69° ESE 23:21:44 74° ENE 23:26:07 10° N
Cosmos-2242 3.4 23:18:30 10° N 23:22:48 51° ENE 23:23:04 50° E
DELTA 2 R/B (1) 4.5 23:20:46 10° WSW 23:28:35 32° ESE 23:31:36 10° E
Cosmos 1602 Rocket 3.8 23:28:09 57° WSW 23:28:42 63° W 23:33:10 10° N
Cosmos 468 Rocket 4.1 23:29:10 55° SE 23:29:40 57° ESE 23:34:48 10° NNE
USA 267 4.3 23:23:50 10° E 23:29:53 42° NNE 23:35:57 10° NW
NOSS 2-3 (D) 4.0 23:29:38 42° WSW 23:30:44 57° NW 23:35:22 10° NNE
USA 305 3.7 23:36:40 39° E 23:36:40 39° E 23:39:35 10° ENE
Cosmos 1763 Rocket 3.4 23:35:39 60° SE 23:36:09 64° ESE 23:41:15 10° NNE
Cosmos 1758 Rocket 3.4 23:37:04 81° SW 23:37:15 86° W 23:41:40 10° N
Tsikada Rocket 4.3 23:39:32 38° SW 23:41:47 58° W 23:47:52 10° N
Cosmos 1408 3.4 23:42:43 43° ENE 23:42:43 43° ENE 23:45:38 10° NNE
Cosmos 2221 4.1 23:48:55 10° NNE 23:52:27 24° ENE 23:53:10 23° E
Cosmos 1943 Rocket 2.5 23:48:18 10° NW 23:53:33 46° WSW 23:54:11 44° SW
Cosmos 2297 4.5 23:49:05 10° NW 23:54:12 36° WSW 23:54:53 35° WSW
